Overview Statistics Trail Chart Weather Telemetry Raw packets
 

This is the latest recevied weather packets stored in our database for station/object DL4MGC-10. If no packets are shown the sender has not sent any weather packets the latest 10 day(s).

<< 4 5 6 7 8 9 10 >>
Time Temp. Humidity Pressure Rain* Wind** Luminosity Snow
1788569857 23.33° C 71% 1017.2 hPa - - - -
1788568957 23.89° C 69% 1017.1 hPa - - - -
1788568057 23.89° C 68% 1016.9 hPa - - - -
1788567156 23.89° C 68% 1016.9 hPa - - - -
1788566256 23.89° C 68% 1016.8 hPa - - - -
1788565356 23.89° C 68% 1016.8 hPa - - - -
1788564456 23.89° C 69% 1016.7 hPa - - - -
1788563556 23.89° C 69% 1016.6 hPa - - - -
1788562656 23.33° C 69% 1016.6 hPa - - - -
1788561756 23.89° C 68% 1016.5 hPa - - - -
1788560856 23.89° C 70% 1016.3 hPa - - - -
1788559955 23.33° C 73% 1016.2 hPa - - - -
1788559055 23.33° C 72% 1016 hPa - - - -
1788558155 23.33° C 72% 1015.8 hPa - - - -
1788557255 23.89° C 67% 1015.8 hPa - - - -
1788556355 23.89° C 70% 1015.6 hPa - - - -
1788555455 23.33° C 73% 1015.7 hPa - - - -
1788554555 23.89° C 71% 1015.7 hPa - - - -
1788553655 25.56° C 61% 1015.7 hPa - - - -
1788552755 25.56° C 60% 1015.5 hPa - - - -
1788551855 25.56° C 59% 1015.6 hPa - - - -
1788550954 25.56° C 59% 1015.5 hPa - - - -
1788550054 26.11° C 57% 1015.5 hPa - - - -
1788549154 25.56° C 58% 1015.2 hPa - - - -
1788548254 26.67° C 58% 1015.1 hPa - - - -

* Rain since midnight (hover to see other rain measurements)
** Current wind speed in m/s (hover to see current wind gust speed)